Location: Bidwell Hollow
(37.7387°N, 90.1707°W)
Time: 14:54:27
(UTC+00:00)

Vanguard 3 - Pass Details

Date: 13 May 2026
Orbit: 507 x 3204 km, 33.3° (Epoch: 6 June)

Event Time Altitude Azimuth Distance (km) Brightness Sun altitude
Rises 23:32:44 0° 274° (W) 7,150 13.7 15.9°
Reaches altitude 10° 23:37:44 10° 272° (W) 6,053 13.9 15.0°
Maximum altitude 23:56:00 69° 195° (SSW) 2,569 9.9 11.4°
Drops below altitude 10° 00:07:25 10° 114° (ESE) 3,987 10.1 9.3°
Sets 00:10:01 0° 112° (ESE) 4,679 10.4 8.8°
